Location: Cartignies
(50.0929°N, 3.8447°E)
Time: 14:34:56
(UTC+00:00)

Cosmos 2239 Rocket - Pass Details

Date: 12 January 2026
Orbit: 953 x 991 km, 82.9° (Epoch: 15 February)

Event Time Altitude Azimuth Distance (km) Brightness Sun altitude
Rises 18:08:16 0° 352° (N) 3,712 7.5 -18.7°
Reaches altitude 10° 18:10:52 10° 356° (N) 2,755 6.8 -19.2°
Maximum altitude 18:17:06 60° 76° (ENE) 1,118 4.5 -20.1°
Drops below altitude 10° 18:23:15 10° 156° (SSE) 2,713 6.7 -21.1°
Sets 18:25:46 0° 160° (SSE) 3,650 7.4 -21.5°
